Location: Akhaldaba
(42.0896°N, 44.4724°E)
Time: 14:35:41
(UTC+00:00)

Daily predictions for brighter satellites

Satellite Brightness Start Highest point End
(mag) Time Altitude Azimuth Time Altitude Azimuth Time Altitude Azimuth
HJ-1C 4.4 16:17:10 10° S 16:20:22 49° W 16:23:35 10° NNW
Cosmos 1726 Rocket 3.8 16:17:24 10° SSW 16:21:46 76° W 16:26:07 10° N
Meteor 2-10 Rocket 3.7 16:18:21 10° S 16:23:37 84° W 16:29:09 10° N
Cosmos 1992 Rocket 4.0 16:19:30 10° NNW 16:24:44 76° ENE 16:29:56 10° SSE
SAR-Lupe-1 4.2 16:22:56 10° N 16:26:32 79° WNW 16:30:06 10° SSW
Cosmos 2219 Rocket 2.3 16:24:34 10° NNW 16:30:17 88° WSW 16:35:58 10° SSE
Cosmos 1634 Rocket 4.0 16:25:55 10° S 16:32:04 62° E 16:38:12 10° NNE
COSMOS 2428 2.8 16:28:09 10° NNW 16:33:56 84° ENE 16:39:40 10° SSE
Meteor 2-1 Rocket 4.4 16:28:53 10° S 16:34:35 59° E 16:40:24 10° NNE
Cosmos 1455 2.1 16:31:56 10° S 16:35:41 90° NNE 16:39:25 10° N
SL-4 R/B 2.6 16:33:37 10° SSW 16:37:35 39° SE 16:41:50 10° ENE
FALCON 9 DEB 3.4 16:35:05 10° SSW 16:37:55 35° SE 16:40:45 10° ENE
CZ-4 R/B 4.1 16:37:15 10° SW 16:40:32 22° W 16:43:49 10° NW
BREEZE-M DEB (TANK) 3.9 16:39:51 10° NW 16:41:48 19° N 16:43:35 10° ENE
Cosmos 909 Rocket 4.0 16:36:26 10° SSW 16:42:50 85° ESE 16:49:15 10° NNE
BREEZE-M DEB (TANK) 4.5 16:39:22 10° W 16:43:14 51° NNW 16:56:09 10° ENE
Cosmos 44 4.3 16:39:03 10° SW 16:44:03 56° NW 16:49:20 10° NNE
Cosmos 407 Rocket 4.0 16:39:51 10° SSE 16:44:29 35° E 16:49:09 10° NE
Cosmos 1076 Rocket 4.2 16:40:35 10° N 16:44:35 35° ENE 16:48:08 12° SE
USA 186 2.1 16:45:30 10° S 16:48:48 69° WSW 16:51:57 10° NNW
SL-8 R/B 3.9 16:44:23 10° WNW 16:49:12 70° SSW 16:53:07 15° SE
NOSS 0 Rocket 4.0 16:44:37 10° NNW 16:50:51 68° ENE 16:56:35 12° SE
OBJECT-B 0.7 16:48:05 10° SSE 16:51:16 78° ENE 16:54:31 10° N
Timation 2 Rocket 4.5 16:48:38 10° S 16:54:41 39° ESE 17:00:31 10° NE
Cosmos 1140 Rocket 3.8 16:53:19 10° S 16:58:06 41° ESE 17:02:53 10° NE
Cosmos 2058 Rocket 4.1 16:54:05 10° SSW 16:58:18 49° WNW 17:02:32 10° N
Cosmos 1356 3.4 16:55:46 10° N 16:59:10 60° E 17:01:40 17° SSE
Cosmos 1408 4.2 16:56:08 10° NNW 16:59:23 35° W 17:02:39 10° SSW
Exosat Rocket 3.7 16:54:20 10° NNW 17:00:24 85° WSW 17:05:18 11° SSE
RESURS DK-1 4.4 16:56:49 10° WSW 17:00:31 32° WNW 17:04:17 10° N
Cosmos 2237 Rocket 2.4 16:57:36 10° NNW 17:03:08 54° ENE 17:07:05 19° SE
Cosmos 1812 Rocket 3.7 17:01:45 10° S 17:06:04 53° E 17:10:26 10° NNE
IRIDIUM 103 4.4 17:01:45 10° SSE 17:06:49 55° E 17:11:54 10° NNE
Cosmos 405 Rocket 2.7 17:04:02 10° N 17:08:02 84° E 17:11:16 15° SSE
Cosmos 192 4.3 17:08:32 10° NNW 17:13:31 78° ENE 17:17:01 19° SSE
Hubble Space Telescope 2.9 17:12:27 10° SSW 17:13:50 12° S 17:13:50 12° S
Cosmos 2227 Rocket 2.3 17:10:26 10° S 17:15:54 53° ESE 17:21:23 10° NNE
Cosmos 1655 Rocket 4.3 17:10:55 10° N 17:17:00 49° ENE 17:20:58 21° SE
Cosmos 1809 Rocket 4.4 17:12:50 10° N 17:18:56 69° E 17:23:50 16° SSE
Cosmos 1825 3.7 17:17:33 10° NNW 17:21:01 35° W 17:24:28 10° SSW
Cosmos 2297 Rocket 2.1 17:16:54 10° SSW 17:22:32 78° ESE 17:28:12 10° NNE
IRIDIUM 106 4.2 17:19:51 10° S 17:25:03 81° E 17:30:18 10° N
Cosmos 2219 3.1 17:25:57 10° SSW 17:31:34 83° ESE 17:37:12 10° NNE
Meteor 2-14 Rocket 4.4 17:27:06 10° N 17:33:10 73° E 17:37:08 23° SSE
Resurs 01 Rocket 1.6 17:31:03 30° SSE 17:33:13 73° ENE 17:37:40 10° N
Cosmos 1633 2.4 17:30:38 10° N 17:34:14 75° E 17:35:09 46° SSE
Lacrosse 5 rocket 4.2 17:32:59 10° NNW 17:34:21 11° N 17:35:45 10° NNE
FALCON 9 DEB 3.4 17:31:59 10° WSW 17:34:59 57° NW 17:37:09 17° NE
Resurs 1-3 4.0 17:31:51 17° S 17:35:10 62° W 17:39:31 10° NNW
Cosmos 2333 Rocket 4.4 17:32:07 10° NW 17:36:20 21° W 17:40:31 10° SSW
Cosmos 1869 4.3 17:37:00 29° ENE 17:37:00 29° ENE 17:40:00 10° NNE
FALCON 9 DEB 4.0 17:36:53 10° WSW 17:39:48 42° NNW 17:42:09 14° NE
Meteor 1-4 Rocket 4.1 17:42:18 22° NE 17:42:18 22° NE 17:44:00 10° NNE
Cosmos 1190 Rocket 3.9 17:36:41 10° SSW 17:41:56 89° ESE 17:47:11 10° NNE
Genesis I 3.3 17:37:58 10° NNW 17:41:59 66° NE 17:42:47 50° ESE
Ariane Rocket 3.8 17:38:10 12° S 17:42:46 49° W 17:47:40 10° NNW
Cosmos 2084 Rocket 3.6 17:41:56 10° SW 17:45:51 66° NW 17:49:53 10° NNE
ATLAS 3B R/B 3.8 17:39:30 10° NW 17:46:05 42° WSW 17:51:52 14° S
Terra 3.5 17:46:06 18° ENE 17:46:26 18° ENE 17:49:34 10° NNE
USA 215 4.0 17:46:56 21° E 17:50:54 44° NNE 17:57:02 10° NW
SPOT 1/Viking Rocket 3.6 17:53:02 43° SE 17:54:36 63° ENE 17:59:46 10° N
SPOT 5 3.8 17:55:42 29° ENE 17:55:54 29° ENE 18:00:00 10° N
Meteor 2-21 Rocket 4.3 17:53:05 10° N 17:59:10 90° WSW 18:02:08 33° S
Cosmos 1980 4.3 17:53:49 10° NW 17:59:18 51° WSW 18:02:19 26° S
SL-16 R/B 2.4 17:54:32 10° NNW 18:00:07 55° ENE 18:01:32 43° ESE
Cosmos 676 Rocket 3.8 17:57:07 24° S 18:00:20 78° ESE 18:05:32 10° NNE
Cosmos-2242 3.2 17:59:03 28° SSW 18:01:15 68° W 18:05:33 10° N
SPOT 3 Rocket 3.8 18:00:01 30° S 18:02:30 65° WSW 18:07:40 10° NNW
COSMOS 2455 2.7 17:58:37 10° SSW 18:04:36 75° ESE 18:10:38 10° NNE
Cosmos 2151 3.7 18:01:54 10° NNW 18:06:05 51° W 18:07:34 34° SSW
Meteor 2-16 Rocket 4.4 18:03:24 10° N 18:09:36 89° W 18:12:03 39° S
BREEZE-M DEB (TANK) 3.5 18:08:06 10° W 18:10:38 26° NNW 18:10:38 26° NNW
ERS-1 Rocket 3.3 18:13:54 46° ENE 18:14:07 47° ENE 18:18:55 10° N
Cosmos 2266 Rocket 4.2 18:08:38 10° NNW 18:14:57 71° W 18:18:00 32° S
SL-4 R/B 3.2 18:12:57 10° W 18:17:14 47° NNW 18:21:46 10° NE
Landsat 7 4.4 18:16:20 38° SSW 18:17:47 53° W 18:22:27 10° NNW
Timation 1 Rocket 4.3 18:13:37 10° SSW 18:19:36 86° WNW 18:25:36 10° NNE
Cosmos 1408 Rocket 4.4 18:17:24 10° N 18:20:40 39° NE 18:20:40 39° NE
ARIANE 5 R/B 2.5 18:26:32 83° NNW 18:26:32 83° NNW 18:30:46 10° NNW
Cosmos 2221 3.8 18:28:17 30° NE 18:28:17 30° NE 18:30:41 10° NNE
USA 245 4.2 18:28:32 42° NW 18:28:32 42° NW 18:30:48 10° NNW
TSX-5 4.3 18:36:54 66° N 18:36:54 66° N 18:40:28 10° NNE
Nadezhda 2 Rocket 4.3 18:31:16 10° N 18:37:31 73° E 18:38:10 67° SE
Cosmos 44 Rocket 3.9 18:34:57 10° SW 18:39:56 59° NW 18:45:05 10° NNE
Cosmos 1741 Rocket 4.4 18:44:39 54° NE 18:44:39 54° NE 18:48:50 10° NNE
Meteor 2-15 4.4 18:45:13 60° SSW 18:46:23 81° W 18:52:28 10° N
Cosmos 1850 Rocket 4.3 18:47:39 58° NE 18:47:39 58° NE 18:51:54 10° NNE
Cosmos 2237 Rocket 4.0 18:42:34 10° NW 18:46:45 22° W 18:48:56 17° SW
USA 229 DEB 4.4 18:43:12 10° NNW 18:50:17 49° NE 18:52:10 41° E
USA 229 4.4 18:43:18 10° NNW 18:50:22 48° NE 18:52:16 41° E
Cosmos 2263 Rocket 3.1 18:53:00 34° NE 18:53:00 34° NE 18:56:21 10° NNE
Aureole 1 Rocket 4.1 18:52:38 47° NE 18:52:38 47° NE 18:56:00 10° NNE
Spot 2 Rocket 4.0 18:51:56 49° WSW 18:52:14 50° W 18:57:11 10° NNW
SL-08 R/B 4.5 18:47:07 10° N 18:53:17 64° E 18:53:17 64° E
Cosmos 1244 Rocket 4.3 18:48:22 10° N 18:54:46 90° E 18:55:17 77° S
Cosmos 2227 Rocket 4.3 18:55:39 10° WSW 19:00:15 25° NW 19:04:53 10° N
Cosmos 1553 Rocket 3.8 19:03:50 79° ENE 19:03:50 79° ENE 19:09:42 10° N
NOSS 3-1 (A) 4.4 19:00:56 10° NNW 19:08:23 58° NE 19:10:11 49° E
Resurs 01 Rocket 4.4 19:09:17 10° W 19:10:11 11° W 19:11:06 10° WNW
Cosmos 1603 4.2 19:09:11 10° NNW 19:14:06 53° NNE 19:14:06 53° NNE
Cosmos 1417 Rocket 4.4 19:15:11 80° NE 19:15:11 80° NE 19:21:09 10° N
Lacrosse 5 rocket 3.5 19:11:18 10° NNW 19:14:23 24° NNE 19:14:23 24° NNE
Cosmos 841 Rocket 4.1 19:12:10 10° NNW 19:16:10 52° N 19:16:10 52° N
Terra 2.9 19:24:59 41° NW 19:24:59 41° NW 19:28:25 10° NNW
NOSS 3-1 (C) 4.0 19:24:36 10° NW 19:32:18 77° WSW 19:32:59 73° SSW
Cosmos 540 Rocket 4.4 19:28:15 10° NNW 19:31:52 45° NW 19:31:52 45° NW
USA 215 3.4 19:34:16 63° WSW 19:34:16 63° WSW 19:40:14 10° NW
SL-16 R/B 4.0 19:39:35 10° NW 19:43:25 21° W 19:43:25 21° W
SL-4 R/B 4.4 19:53:53 10° WNW 19:57:46 26° N 19:57:56 26° N
Cosmos 1943 4.3 20:04:42 10° NNW 20:08:18 38° NW 20:08:18 38° NW
SeaSat 1 4.0 20:08:52 10° NNE 20:11:32 32° N 20:11:32 32° N
Cosmos 1709 Rocket 4.5 20:08:41 10° N 20:13:30 55° NNW 20:13:30 55° NNW
Cosmos 2263 Rocket 3.9 20:34:38 24° WNW 20:35:10 24° NW 20:39:41 10° N
Cosmos 1844 Rocket 4.0 20:49:18 35° NNE 20:49:18 35° NNE 20:52:29 10° NNE
Cosmos 1833 Rocket 4.3 21:09:41 10° N 21:14:25 27° NE 21:14:25 27° NE
Cosmos 2278 Rocket 3.7 21:37:40 30° ENE 21:37:40 30° ENE 21:40:51 10° NE
SJ 16-02 3.9 21:40:24 18° NE 21:40:24 18° NE 21:41:41 10° NNE
ATLAS 5 CENTAUR R/B 3.1 21:40:32 10° NNW 21:45:39 47° NE 21:45:39 47° NE
Cosmos 2341 Rocket 4.4 21:40:55 10° N 21:46:08 60° NNE 21:46:08 60° NNE
SL-8 Rocket 4.5 21:43:40 10° N 21:49:03 56° NE 21:49:03 56° NE
USA 281 3.6 21:56:17 56° NW 21:56:17 56° NW 22:01:23 10° NNW
COSMOS 2406 4.0 21:58:44 10° NNW 22:02:52 47° N 22:02:52 47° N
Gbstr 26 Del rocket 4.4 22:11:18 53° NNW 22:11:18 53° NNW 22:16:29 10° NE
Cosmos 1238 Rocket 4.2 22:11:10 10° N 22:16:52 70° N 22:16:52 70° N
Resurs 1-4 Rocket 2.7 22:26:11 10° NNE 22:30:21 52° NE 22:30:21 52° NE
Cosmos 2218 Rocket 4.2 22:25:50 10° N 22:31:01 63° NNW 22:31:01 63° NNW
Cosmos 2366 rocket 4.2 22:31:17 10° NNW 22:36:24 60° NW 22:36:24 60° NW
Cosmos 1898 Rocket 4.2 22:39:14 48° ENE 22:39:14 48° ENE 22:43:29 10° NNE
Cosmos 1821 Rocket 4.4 22:38:28 10° N 22:44:45 59° E 22:45:53 51° ESE
CZ-4C R/B 3.1 22:40:03 10° NNW 22:47:25 75° NE 22:55:52 10° SE
NOSS 3-3 (A) 4.3 22:47:38 54° NW 22:47:39 54° NW 22:54:04 10° NNE
NOSS 3-3 (C) 4.2 22:47:45 54° NW 22:47:46 54° NW 22:54:10 10° NNE
Milstar 3 4.4 22:51:11 21° SE 22:51:11 21° SE 22:54:57 10° ESE
SL-16 R/B 2.4 22:51:24 87° W 22:51:24 87° W 22:57:42 10° NNW
Meteor 2-4 Rocket 3.8 22:52:32 79° ENE 22:52:32 79° ENE 22:58:19 10° NNE
CZ-2D R/B 2.3 22:47:07 10° NNE 22:52:02 71° N 22:52:02 71° N
SL-08 R/B 4.3 22:48:13 10° N 22:54:19 88° NW 22:54:19 88° NW
ATLAS 2AS CENTAUR R/B 4.2 22:48:07 10° NNW 22:54:53 36° NE 23:01:11 10° ESE
Cosmos 2082 Rocket 2.3 22:51:13 10° NNW 22:56:13 71° NNW 22:56:13 71° NNW
Cosmos 1833 Rocket 4.0 22:53:13 10° NW 22:56:05 29° NW 22:56:05 29° NW
ADEOS Rocket 4.3 22:54:48 12° SE 23:00:21 43° ENE 23:07:02 10° N
ADEOS II 2.5 22:55:12 10° NNE 23:00:21 53° E 23:00:26 53° ESE
Cosmos 2112 Rocket 4.1 22:56:34 10° NNW 23:01:42 73° NE 23:01:42 73° NE
Nadezhda 3 Rocket 3.9 23:04:49 73° SSE 23:05:29 84° E 23:11:50 10° N
Cosmos 1703 Rocket 4.4 23:11:58 45° N 23:11:58 45° N 23:15:03 10° N
Cosmos 1943 Rocket 2.8 23:10:27 44° SE 23:11:08 46° ESE 23:16:31 10° NE
IRS-1D 3.8 23:08:20 10° NNE 23:13:29 59° ESE 23:13:56 57° SE
Cosmos 1782 Rocket 4.0 23:11:04 10° N 23:14:54 60° NNE 23:14:54 60° NNE
SJ 16-02 3.4 23:17:22 18° NW 23:17:22 18° NW 23:19:32 10° NNW
SL-19 R/B 4.3 23:10:45 10° N 23:16:50 71° WNW 23:17:14 68° W
Cosmos 2278 Rocket 3.3 23:19:30 30° WNW 23:19:44 30° NW 23:24:41 10° N
IDEFIX/ARIANE 42P 3.6 23:15:08 10° NNE 23:20:02 39° E 23:21:34 32° SE
Okean 1-7 3.9 23:21:48 42° NNW 23:21:48 42° NNW 23:24:48 10° N
Cosmos 1934 Rocket 4.3 23:14:28 10° N 23:20:42 62° E 23:23:47 30° SSE
BREEZE-M DEB (TANK) 4.3 23:26:09 45° S 23:26:09 45° S 23:39:18 10° SE
ATLAS 5 CENTAUR R/B 4.0 23:25:17 10° NW 23:27:06 20° WNW 23:27:06 20° WNW
USA 234 3.2 23:24:41 10° NE 23:31:14 73° SE 23:32:59 51° SSW
Cosmos 1066 Rocket 4.5 23:32:11 45° SSE 23:33:58 69° E 23:39:49 10° NNE
Cosmos 1680 Rocket 4.2 23:30:17 10° NNW 23:34:05 39° WNW 23:34:05 39° WNW
AQUA 4.3 23:32:22 10° N 23:36:34 45° WNW 23:36:34 45° WNW
Cosmos 2221 Rocket 4.4 23:36:54 39° SE 23:37:59 47° E 23:42:20 10° NNE
NPP 4.2 23:33:04 10° N 23:38:06 41° WNW 23:38:17 41° WNW
Cosmos 2369 Rocket 3.0 23:41:17 31° SSE 23:43:27 45° ESE 23:48:46 10° NE
DELTA 2 R/B (1) 3.4 23:43:51 63° SW 23:44:20 66° S 23:49:51 10° ESE
Cosmos 489 Rocket 4.3 23:39:08 10° NNW 23:45:22 82° WSW 23:49:11 25° SSE
Cosmos 1605 Rocket 4.3 23:42:02 10° N 23:48:07 64° E 23:54:06 11° SSE
Cosmos 1356 Rocket 3.5 23:44:21 10° N 23:48:30 75° E 23:49:10 60° SE
Helios 1B rocket 4.5 23:45:43 10° NNW 23:47:40 17° NW 23:47:40 17° NW
Meteor 1-15 Rocket 4.3 23:46:59 10° N 23:52:34 73° E 23:57:03 16° SSE
Spot 1 3.8 23:52:45 76° SW 23:52:56 79° WSW 23:57:17 10° NNW
